Dewpoint
13 13 13 13 13 13 12 12 12 10 8 8 9 9 9 10 10 10 11 11 10 11 11 10 10 10 11 11 10 10 11 11 11 11 11 10 10 10 10 10 10 10 10 10 11 11 11 11 10 9 10 11 10 9 8 8 9 9 10 11 11 11 11
13 13 12 13 13 12 12 12 11 11 10 10 10 9 9 11 11 10 11 11 11 11 10 10 10 10 10 10 10 10 11 11 11 11 11 10 10 11 10 10 10 10 9 9 10 11 11 11 10 10 10 11 11 9 8 8 9 8 8 10 11 11 11
12 12 12 12 12 12 12 12 11 11 11 11 10 9 9 10 10 9 9 10 10 10 10 10 10 10 10 10 10 10 10 11 11 11 11 10 10 11 10 11 11 10 10 10 10 10 10 11 11 11 10 10 11 11 10 9 9 9 8 9 11 11 11
12 12 12 12 12 12 11 11 11 11 11 11 10 10 9 9 9 8 8 9 9 9 8 7 8 9 10 10 10 10 10 11 11 11 11 10 10 11 10 10 11 11 11 11 10 9 9 10 11 11 11 10 10 11 10 9 9 10 9 9 10 11 11
12 12 12 12 11 11 11 10 10 10 11 10 10 11 9 8 8 8 7 8 8 7 6 6 7 9 10 10 10 10 10 10 10 11 10 10 10 10 10 10 10 10 10 11 11 10 10 10 10 10 11 10 10 10 10 10 10 9 10 10 9 10 11
12 12 11 11 11 11 10 10 10 10 11 10 10 10 8 7 7 6 6 6 6 6 6 7 8 9 10 10 10 10 10 10 10 10 10 10 10 10 9 9 9 9 10 10 10 11 10 10 10 10 10 10 10 10 10 10 11 10 10 10 10 10 10
12 11 11 11 11 10 10 10 10 10 10 10 10 9 7 6 6 6 6 6 6 7 7 7 8 9 10 10 10 9 9 10 10 10 10 9 9 9 8 8 7 8 9 9 10 10 10 10 10 10 10 9 9 10 10 10 11 11 10 11 11 10 10
11 11 10 10 10 10 10 9 9 9 9 9 9 7 6 6 7 6 6 7 7 7 7 7 7 8 10 10 9 8 8 8 9 9 8 8 8 7 7 7 7 8 8 8 9 10 10 11 10 10 10 10 9 10 10 10 10 10 10 10 11 11 10
11 10 9 9 8 8 8 8 8 7 8 8 7 6 7 7 6 6 7 7 7 7 6 6 7 8 9 9 8 8 7 8 8 7 6 6 7 7 7 7 7 7 8 8 9 10 10 10 10 10 10 10 10 10 10 10 9 9 9 9 10 10 10
10 9 9 8 7 7 6 6 6 6 7 7 7 7 7 7 7 7 7 7 6 6 5 6 7 7 7 7 7 7 6 7 8 7 5 6 6 7 7 7 7 7 7 8 9 9 9 10 10 10 10 10 10 10 10 10 10 9 9 9 9 10 10
9 8 9 8 7 7 6 5 5 6 6 7 7 7 7 7 7 7 6 7 7 7 6 7 7 7 6 5 5 6 7 7 7 6 6 6 6 7 7 7 6 6 7 7 8 8 9 9 9 10 10 10 10 10 10 10 10 9 10 9 9 10 10
8 8 8 8 7 7 7 5 5 6 6 6 7 7 7 7 7 7 7 8 8 8 8 7 7 7 6 4 5 7 7 6 6 6 6 6 6 6 6 6 5 5 6 6 7 7 8 9 9 9 10 10 10 10 10 10 9 10 10 10 9 9 10
8 7 6 6 6 6 5 5 6 6 6 6 6 7 8 8 8 8 8 8 8 8 8 7 6 7 7 6 6 6 6 6 7 7 7 6 5 5 5 4 4 5 5 5 6 6 7 8 9 9 9 9 10 10 10 10 10 10 10 10 9 9 9
7 6 6 5 4 4 5 5 6 6 5 6 7 8 8 8 7 7 7 7 7 7 7 7 6 7 7 7 6 5 6 7 7 7 7 6 5 4 4 4 4 4 4 5 5 5 5 7 8 8 9 9 9 10 10 10 10 9 9 9 10 9 9
7 6 5 5 4 4 5 6 6 6 6 7 8 8 8 7 7 7 7 7 7 7 7 7 7 7 7 7 7 6 7 7 7 7 7 6 5 4 3 2 3 3 4 4 4 5 5 6 7 8 8 9 9 9 9 9 9 9 9 9 9 9 8
7 6 5 4 5 5 6 6 6 7 7 7 8 7 7 7 6 6 6 6 6 6 6 6 6 7 7 7 7 7 7 7 7 7 7 7 6 4 2 2 3 3 3 3 3 4 5 5 6 7 8 8 8 8 8 8 9 9 9 9 8 8 8
6 6 5 4 5 6 6 6 7 7 7 7 7 7 6 6 6 6 6 6 6 6 6 6 6 6 6 6 6 6 6 6 6 6 6 6 6 4 3 3 3 3 4 3 3 3 3 4 5 6 7 7 7 7 7 7 7 7 7 7 7 7 7
5 5 5 5 5 6 6 6 7 7 7 7 7 7 6 6 6 6 6 5 6 5 5 6 6 6 6 6 6 6 6 6 6 6 6 6 6 5 4 4 4 3 4 4 4 4 3 3 3 4 5 6 7 7 6 6 5 5 5 5 5 4 5
4 5 5 4 5 5 5 6 6 7 7 7 7 6 6 6 6 5 5 4 4 3 3 4 5 5 5 5 5 5 5 5 5 5 5 6 6 5 4 4 4 3 3 4 4 4 3 3 3 3 3 4 5 6 6 6 5 5 4 4 4 3 3
5 5 4 4 5 5 5 6 7 7 6 6 6 6 6 5 4 4 3 3 2 2 2 2 3 4 5 5 5 5 5 5 5 5 5 5 5 5 4 4 4 3 3 4 4 4 3 3 3 2 2 2 3 5 5 5 5 5 4 4 4 4 3
6 5 4 4 5 5 5 6 7 6 6 6 6 5 5 4 3 3 3 2 2 2 1 1 0 2 3 4 4 4 4 4 4 4 4 4 4 5 4 4 3 3 3 3 4 4 3 3 2 2 1 1 1 2 4 5 4 4 4 4 4 4 4
5 4 4 4 5 6 6 6 6 6 6 6 6 5 5 4 3 3 2 2 1 -1 -2 -4 -3 -0 1 3 4 3 2 2 3 3 3 3 2 2 3 3 2 2 3 3 3 4 3 2 1 1 -0 -2 -2 -1 2 4 4 4 4 3 3 3 3
4 4 4 5 6 6 6 6 6 6 6 6 5 5 5 4 3 2 1 -1 -4 -8 -10 -9 -5 -3 -3 -0 2 1 -1 -1 -0 0 1 2 1 -0 -1 -1 -1 -1 1 3 3 3 3 2 -0 -0 -0 -2 -3 -3 0 3 3 3 3 3 3 2 3
5 5 5 6 6 6 6 6 6 6 5 5 5 5 4 2 1 -0 -4 -8 -12 -16 -17 -13 -9 -8 -10 -8 -3 -2 -6 -8 -6 -5 -2 -1 -1 -3 -6 -8 -8 -6 -1 3 3 3 3 3 0 -0 1 -0 -1 -2 -0 1 2 3 2 2 2 2 2
6 6 6 6 6 6 6 6 6 6 5 5 4 4 2 0 -2 -6 -12 -17 -18 -21 -19 -16 -15 -14 -17 -18 -10 -7 -11 -16 -14 -13 -10 -7 -7 -9 -10 -12 -13 -12 -7 -0 2 3 3 3 1 1 1 1 0 -0 -1 -0 1 2 2 2 2 2 2
6 6 5 5 5 5 5 5 5 5 5 4 3 1 -2 -5 -10 -14 -19 -21 -21 -24 -20 -17 -19 -19 -20 -24 -11 -5 -10 -23 -21 -19 -20 -16 -14 -15 -13 -14 -15 -14 -11 -5 -1 1 2 2 1 1 1 0 1 0 -1 -1 0 1 2 2 1 1 1
5 5 5 5 5 5 5 5 5 4 4 2 -0 -5 -9 -13 -17 -19 -22 -24 -23 -24 -20 -18 -21 -21 -22 -23 -10 -2 -5 -16 -22 -21 -22 -21 -20 -19 -16 -16 -16 -16 -14 -11 -6 -2 0 1 0 0 1 0 0 -0 -1 -1 -1 0 1 1 1 1 0
5 5 5 5 5 5 5 4 4 3 1 -2 -6 -11 -15 -19 -22 -21 -23 -25 -24 -24 -22 -19 -21 -25 -21 -13 -6 -2 -4 -9 -15 -19 -22 -21 -19 -19 -20 -18 -16 -15 -15 -14 -12 -8 -3 1 1 1 0 0 -0 -1 -2 -2 -2 -1 -0 -0 -0 -0 -0
5 5 4 4 5 4 4 3 1 -2 -5 -8 -10 -11 -14 -18 -22 -24 -24 -24 -24 -23 -23 -20 -22 -25 -15 -5 -1 -2 -4 -6 -9 -13 -16 -20 -21 -19 -18 -19 -19 -17 -15 -15 -15 -15 -11 -3 1 1 0 -0 -0 -1 -2 -3 -3 -2 -2 -1 -1 -1 -1
5 4 4 4 4 3 2 -1 -5 -9 -13 -14 -13 -12 -13 -17 -22 -24 -23 -24 -23 -23 -23 -22 -23 -22 -13 -4 -0 -1 -1 -2 -4 -6 -7 -11 -17 -20 -19 -17 -18 -18 -16 -16 -15 -16 -20 -10 -1 1 1 -0 -1 -1 -2 -3 -3 -3 -2 -1 -1 -1 -1
4 4 4 3 2 0 -2 -6 -11 -13 -15 -17 -16 -15 -17 -22 -23 -23 -24 -24 -23 -23 -22 -21 -22 -21 -13 -5 -2 -1 -1 -1 -1 -2 -4 -5 -7 -13 -17 -16 -17 -18 -16 -16 -15 -15 -19 -16 -6 -1 1 0 -1 -1 -2 -2 -3 -3 -2 -2 -1 -1 -1
4 4 3 1 -1 -2 -5 -11 -15 -15 -13 -11 -10 -11 -15 -20 -23 -22 -23 -23 -22 -22 -22 -22 -22 -21 -16 -9 -3 -2 -2 -1 -1 -1 -3 -4 -5 -8 -12 -13 -15 -16 -15 -15 -15 -15 -17 -18 -11 -5 -2 -1 -0 -1 -2 -2 -2 -2 -2 -2 -1 -1 -1
4 3 1 -2 -5 -6 -9 -14 -13 -8 -5 -4 -5 -7 -11 -17 -22 -22 -22 -23 -23 -22 -22 -22 -22 -20 -19 -15 -8 -3 -1 -1 -2 -2 -3 -3 -4 -6 -8 -11 -13 -14 -15 -14 -14 -15 -18 -19 -12 -7 -4 -2 -1 -2 -2 -2 -2 -2 -3 -2 -2 -1 -1
3 1 -2 -6 -6 -6 -10 -14 -10 -4 -3 -5 -7 -10 -12 -17 -23 -23 -21 -21 -22 -23 -22 -22 -23 -23 -22 -21 -19 -12 -7 -3 -2 -2 -3 -4 -4 -6 -8 -11 -12 -13 -15 -14 -14 -15 -17 -18 -13 -8 -5 -3 -2 -2 -2 -2 -2 -3 -3 -3 -2 -2 -2
1 -2 -6 -7 -6 -8 -12 -14 -8 -5 -7 -11 -11 -9 -8 -11 -16 -19 -21 -22 -22 -22 -23 -22 -21 -23 -22 -21 -22 -23 -19 -12 -6 -3 -4 -4 -5 -6 -9 -11 -13 -15 -15 -15 -15 -17 -17 -17 -15 -10 -7 -5 -3 -3 -3 -2 -2 -3 -3 -3 -3 -2 -2
-2 -6 -7 -6 -7 -13 -17 -13 -9 -9 -10 -10 -7 -5 -4 -5 -8 -10 -13 -19 -22 -21 -21 -23 -23 -23 -22 -22 -22 -20 -22 -21 -13 -9 -7 -7 -7 -9 -11 -12 -13 -16 -17 -16 -15 -14 -14 -14 -13 -11 -9 -6 -5 -4 -3 -3 -3 -3 -4 -4 -4 -3 -2
-5 -8 -7 -7 -11 -21 -19 -11 -8 -6 -5 -4 -4 -4 -4 -4 -5 -5 -6 -10 -16 -21 -22 -21 -20 -21 -20 -20 -22 -21 -21 -22 -21 -17 -15 -13 -14 -16 -15 -15 -16 -17 -17 -15 -11 -9 -9 -9 -9 -9 -8 -7 -6 -5 -4 -3 -3 -3 -4 -5 -4 -3 -2
Wind_Speed
6 5 4 3 3 2 1 1 1 1 3 4 4 4 5 4 5 5 5 6 6 6 7 7 8 9 9 11 11 10 11 13 13 13 15 16 18 19 19 20 21 20 18 18 22 23 22 25 29 25 20 22 23 20 19 19 21 23 23 23 22 22 23
5 4 4 3 2 2 1 1 1 2 3 3 3 4 5 5 5 5 5 5 5 6 6 6 7 8 9 11 11 11 12 12 12 13 15 18 18 19 19 20 20 20 20 20 20 21 21 23 27 26 22 21 24 21 17 17 19 22 23 23 24 24 23
4 4 4 4 2 1 1 2 2 2 2 2 3 4 5 5 5 5 5 5 6 6 6 7 8 8 8 10 11 11 11 12 12 12 15 18 17 17 18 19 20 21 22 22 22 23 24 23 23 25 24 23 23 22 21 19 18 19 20 22 25 25 23
5 5 4 4 2 2 2 2 2 2 2 2 3 3 4 5 5 5 6 6 6 7 8 9 9 9 9 10 11 11 11 11 13 13 15 16 16 16 18 19 18 19 20 21 23 24 24 23 24 24 24 24 24 23 23 21 18 19 21 21 23 24 24
5 5 5 4 3 3 3 3 3 2 2 3 3 3 3 5 4 5 7 7 7 8 9 10 10 10 9 10 11 12 12 11 11 13 15 17 16 16 18 18 18 18 18 19 21 22 22 22 24 23 22 24 25 24 23 21 19 20 21 20 21 24 24
5 5 5 5 4 3 3 3 3 3 3 3 2 2 3 5 5 6 8 8 8 8 9 10 10 10 10 10 11 12 12 11 12 13 15 16 17 17 17 18 18 18 18 19 19 19 20 21 22 22 22 22 24 24 22 21 20 20 21 19 19 21 23
5 6 5 5 5 4 3 4 4 4 3 2 2 3 4 5 6 7 7 7 8 8 9 10 10 10 10 10 10 11 10 9 10 12 13 13 15 16 17 18 18 17 18 18 18 19 20 21 21 22 23 23 23 23 20 19 18 18 21 21 18 17 21
5 6 5 5 5 5 4 4 4 4 3 2 3 4 5 6 6 6 7 6 7 8 9 11 11 10 11 10 10 10 10 9 9 11 11 12 14 16 17 19 19 18 19 19 18 18 18 19 20 20 22 24 25 24 22 21 18 17 20 21 20 19 20
5 5 4 5 6 6 5 4 4 5 5 4 5 5 6 6 6 6 6 6 7 9 9 11 11 10 9 8 9 11 13 12 12 14 15 14 16 17 18 19 20 20 20 20 19 18 17 17 18 19 21 22 24 24 24 22 20 19 20 22 23 21 18
6 5 5 6 7 7 5 4 5 6 7 6 6 6 6 6 6 6 6 7 8 9 10 10 11 11 10 10 11 13 14 14 14 16 17 17 17 18 19 19 20 21 21 21 20 19 18 18 17 17 18 20 21 23 24 23 23 22 21 23 23 22 17
6 6 7 7 6 6 5 5 6 7 7 7 7 6 6 6 6 6 7 8 9 9 10 10 10 11 11 12 13 13 13 14 14 16 17 17 17 18 19 19 20 21 21 21 21 20 20 19 18 16 16 19 21 21 22 24 24 22 22 23 23 21 17
6 7 8 7 6 6 5 6 8 8 8 7 7 7 6 6 7 7 8 8 9 9 9 10 10 11 11 12 12 11 12 14 15 16 17 18 18 18 19 20 21 21 22 22 22 22 22 20 19 18 17 17 18 20 21 22 23 22 21 22 22 21 19
7 8 8 7 6 6 6 8 10 9 9 8 8 7 7 8 8 8 9 9 10 10 9 10 10 11 11 11 11 12 13 15 15 16 17 18 19 19 19 20 21 21 21 21 22 23 23 21 20 20 19 17 16 18 21 22 22 23 21 20 22 21 19
8 9 8 7 7 8 9 11 11 10 10 9 8 7 8 9 8 8 9 10 11 11 10 10 10 10 10 10 11 13 14 14 14 16 16 17 18 19 20 20 21 21 21 20 21 22 22 21 20 19 19 21 19 19 22 22 21 22 21 21 22 20 17
9 9 9 9 9 10 12 12 11 11 10 9 7 8 9 9 9 10 9 9 10 11 11 10 9 10 10 11 12 13 13 14 15 16 15 16 17 19 20 21 21 22 21 21 21 20 21 21 21 20 19 21 22 22 22 22 21 21 21 21 21 20 18
10 10 10 11 12 13 13 13 12 11 9 8 7 9 10 9 10 8 5 6 10 10 11 11 10 10 11 12 13 13 13 15 15 15 15 16 16 17 19 20 21 22 23 24 22 20 21 21 21 23 22 21 23 24 24 23 22 22 21 21 22 22 21
10 11 13 14 14 14 14 13 12 10 8 8 7 8 9 7 7 7 5 8 10 9 11 12 12 12 12 12 13 13 14 15 15 15 16 16 16 17 18 19 20 21 22 24 24 23 24 23 22 22 23 23 24 23 23 24 24 22 21 21 22 23 23
12 14 15 16 15 14 14 13 11 9 8 8 7 8 8 6 7 10 9 8 8 8 10 11 11 12 13 12 12 13 13 14 14 15 16 15 15 17 18 18 19 20 21 23 24 24 25 25 24 22 20 21 23 22 21 22 23 23 22 22 22 23 23
16 17 17 17 16 14 14 13 10 9 8 9 8 9 10 8 8 11 10 7 8 10 10 9 9 10 12 12 12 12 13 13 13 14 15 14 15 17 17 18 18 19 21 23 25 25 25 24 26 25 23 21 21 21 20 20 21 22 23 22 22 23 24
19 19 18 17 15 14 14 12 10 10 10 10 11 11 10 10 10 11 10 9 8 9 10 10 10 9 11 12 12 12 12 13 13 13 14 14 14 16 17 18 17 18 21 22 23 25 25 25 25 25 25 23 21 20 20 20 20 21 22 23 23 23 24
20 19 18 17 15 14 13 11 10 10 10 11 12 11 10 11 11 10 9 8 8 8 9 11 11 10 11 12 11 11 12 12 12 12 13 14 14 15 16 17 17 18 18 19 21 24 26 26 25 24 24 24 22 21 20 21 21 21 21 22 23 23 24
21 19 18 17 14 13 12 10 10 10 10 11 13 12 11 11 10 9 8 8 9 10 10 13 14 12 11 12 11 12 13 13 13 13 13 14 16 16 16 16 17 17 16 17 19 23 27 29 28 26 25 25 25 23 21 21 22 22 21 23 25 25 25
21 19 17 15 12 11 11 11 11 11 11 12 12 12 11 10 9 9 9 9 10 12 14 15 15 13 12 13 13 13 14 15 14 14 14 15 16 17 17 17 17 16 15 15 17 20 25 29 30 28 27 27 29 29 26 23 23 24 23 23 25 26 26
19 17 15 12 11 12 12 11 11 11 12 12 11 10 10 9 9 9 10 11 12 15 16 16 14 12 12 14 15 13 13 14 14 14 15 15 16 17 18 19 20 18 15 14 14 16 20 24 28 28 27 27 29 32 31 27 23 24 23 23 24 25 26
15 14 13 13 13 13 12 12 12 11 12 12 11 11 10 10 11 11 12 12 13 15 16 14 13 12 12 14 16 15 14 14 14 15 15 16 17 18 20 21 22 21 17 14 12 14 17 19 23 25 25 25 26 30 34 31 25 23 22 23 23 24 25
16 15 14 14 13 13 13 13 13 12 13 12 12 12 12 12 13 13 12 12 13 14 15 13 11 11 12 14 16 16 15 16 16 16 17 17 18 20 21 21 22 22 19 15 13 14 16 16 18 20 21 21 21 26 33 33 28 24 22 23 23 23 27
16 16 15 14 14 14 14 14 14 13 14 14 13 13 13 13 13 12 12 12 12 13 14 12 10 11 12 15 17 16 15 17 18 18 18 19 20 21 21 22 22 23 21 18 15 15 16 15 15 16 18 18 18 23 29 31 30 26 23 23 23 23 28
17 16 15 14 14 14 14 15 16 16 16 15 14 13 12 12 13 12 12 12 11 13 13 11 9 10 14 17 17 15 15 17 18 19 19 20 21 22 22 22 22 22 22 21 19 18 17 16 15 15 17 18 19 21 25 28 31 30 26 25 26 26 28
17 17 15 15 15 14 14 16 18 18 17 16 14 13 12 12 12 12 12 12 12 12 13 11 9 11 15 17 16 14 14 16 17 19 20 21 22 22 22 22 23 23 23 22 21 20 19 17 15 15 16 18 19 21 22 25 29 31 29 27 27 28 28
17 17 16 16 16 16 17 19 19 18 16 15 13 13 12 12 12 12 12 13 13 13 13 12 10 11 15 17 15 12 11 13 15 17 18 20 21 23 23 22 22 23 24 24 23 21 21 20 18 16 17 17 19 21 22 23 25 27 27 27 26 26 27
18 17 17 18 19 19 19 20 20 18 16 14 13 13 13 12 13 12 12 13 13 13 13 12 10 11 14 17 16 12 9 10 12 13 15 17 18 21 22 22 22 23 24 24 23 22 22 23 22 19 18 18 18 21 22 22 22 22 23 24 24 24 25
17 17 18 20 20 20 20 20 19 17 15 14 14 13 13 13 14 13 13 13 13 13 13 13 11 12 13 16 16 13 10 10 11 11 12 14 15 18 20 21 21 22 23 23 23 22 21 23 24 23 21 20 19 20 21 20 20 20 21 23 23 23 25
19 19 20 21 21 20 20 20 19 17 15 14 14 14 14 14 14 14 13 12 13 13 14 14 13 13 12 13 14 13 11 10 11 11 11 12 13 15 17 18 19 20 21 22 22 21 21 22 24 24 24 23 22 21 19 18 19 20 20 22 23 23 24
21 21 21 22 21 20 19 19 18 17 15 14 15 15 15 15 15 15 14 13 13 13 13 14 14 14 14 13 12 13 14 14 11 10 10 11 12 13 15 16 17 18 20 20 20 20 20 21 23 23 23 22 21 20 18 17 18 19 19 21 22 23 24
22 22 22 21 20 19 19 18 17 16 15 16 17 16 15 15 15 15 14 13 13 13 13 13 13 14 15 14 13 12 14 16 15 11 10 11 12 13 14 15 15 16 18 19 19 20 20 21 22 22 22 21 20 19 18 17 18 18 19 20 21 22 24
22 22 21 20 19 19 19 18 17 17 17 17 16 15 14 14 14 14 14 13 14 14 13 13 14 14 15 15 15 14 14 15 16 14 12 12 12 12 13 13 13 15 16 17 19 21 22 23 23 23 23 22 21 20 18 18 18 18 19 20 21 22 24
22 22 20 19 19 19 20 19 17 16 16 15 14 13 13 12 12 12 12 12 13 14 13 13 14 14 15 15 15 15 15 15 16 16 15 15 14 14 14 13 13 15 17 19 20 20 22 24 25 25 24 23 22 21 20 19 19 19 19 20 21 22 22
Wind_Direction
142 146 154 167 165 161 150 197 279 15 16 17 13 12 15 6 2 9 8 359 354 348 345 342 333 329 329 327 329 336 336 333 331 329 330 335 336 334 333 332 335 336 325 313 311 308 303 308 311 312 309 308 311 303 283 274 275 271 260 255 251 244 247
132 149 159 155 151 183 172 106 68 32 26 26 25 18 14 8 3 6 7 3 356 352 352 343 331 331 332 331 336 344 339 333 333 330 331 337 338 335 336 337 338 342 339 335 331 321 314 313 310 311 314 312 314 312 297 286 284 275 263 259 258 255 251
142 158 161 163 174 191 107 83 71 44 49 42 30 22 13 14 12 10 13 11 4 359 354 346 343 343 342 345 348 346 340 336 335 332 332 339 339 336 340 341 340 342 341 340 341 336 330 324 316 315 315 311 310 308 303 299 289 280 271 262 260 261 254
170 175 171 168 157 119 94 78 67 57 63 49 32 20 9 19 21 16 17 15 9 3 358 357 356 354 355 357 355 350 347 343 340 338 336 341 342 341 344 345 342 341 337 334 338 341 339 333 326 322 318 317 311 301 300 301 290 284 283 275 265 260 254
166 174 165 143 122 105 94 84 80 68 62 49 38 23 15 26 25 19 22 19 14 8 1 2 1 360 6 5 358 353 351 349 348 344 340 343 346 346 348 347 344 343 337 333 336 339 338 335 331 326 323 325 319 307 303 303 299 290 287 286 275 259 250
146 156 141 121 116 108 102 101 101 88 71 53 33 34 35 38 36 31 30 22 17 12 5 7 6 3 10 11 1 354 352 355 356 348 344 346 347 348 347 343 343 344 340 337 338 337 335 334 332 330 329 332 327 320 312 305 302 298 293 293 284 264 252
136 137 127 122 119 108 105 101 96 89 77 63 48 53 54 51 48 41 34 23 17 16 14 15 12 8 17 15 358 350 352 356 354 344 340 340 340 341 342 340 343 344 339 338 338 338 341 340 339 336 334 335 334 332 329 317 308 307 304 299 291 280 269
135 133 134 134 123 112 111 100 87 88 94 98 81 71 66 59 55 48 37 27 22 23 23 19 15 16 21 11 354 355 5 6 359 351 347 343 343 347 350 351 353 352 348 346 344 343 343 339 340 345 342 339 338 338 339 335 328 323 317 311 305 299 289
130 129 129 121 115 111 110 99 87 98 110 111 99 86 78 66 59 53 44 36 32 29 27 23 21 23 21 9 5 11 17 16 11 9 11 8 6 6 4 3 3 3 0 359 355 350 345 340 340 345 343 340 338 336 337 338 337 336 334 332 326 317 306
118 119 111 104 108 108 107 105 105 112 115 114 107 93 80 70 59 54 51 45 39 34 32 31 29 30 27 23 22 21 19 19 13 12 16 17 16 14 10 8 9 10 9 7 3 357 352 349 345 341 340 341 341 338 336 335 335 338 342 343 337 330 322
116 116 109 105 106 106 105 113 120 123 118 115 111 95 80 75 67 60 56 46 38 34 32 31 27 25 25 23 23 20 17 18 14 13 16 17 15 15 14 14 15 15 15 12 10 7 2 358 353 347 342 344 346 343 340 337 335 337 343 348 348 341 332
113 116 116 116 112 109 110 120 125 123 118 115 106 91 77 73 68 57 50 41 33 29 25 25 24 20 17 16 19 19 16 18 18 17 18 19 18 19 23 23 21 20 19 17 15 12 9 5 3 360 352 349 348 346 345 342 340 341 344 348 352 351 345
118 121 122 121 117 120 127 129 125 120 118 114 102 88 71 63 59 51 46 40 32 26 19 18 21 20 17 17 22 24 23 23 23 22 22 23 24 26 28 27 24 22 20 19 19 15 12 9 7 6 4 2 357 353 353 348 343 344 347 349 352 355 354
124 127 126 123 124 130 132 129 124 121 122 111 92 78 69 63 56 47 47 44 34 27 20 17 21 25 25 26 28 28 29 28 25 24 23 24 26 26 26 24 22 22 20 19 21 19 16 13 7 5 6 7 8 7 0 354 350 349 353 359 358 354 353
126 127 126 126 129 131 130 128 125 125 121 106 84 73 71 67 56 45 39 40 38 31 27 26 28 32 31 30 30 27 27 28 26 24 21 20 22 22 22 21 20 22 21 19 19 17 15 16 12 8 6 7 12 11 2 355 356 357 358 1 359 355 356
129 128 130 131 131 129 129 128 127 124 114 97 83 72 65 61 59 52 28 30 41 38 37 37 33 35 36 33 31 28 27 28 26 22 19 18 18 18 20 22 23 26 26 25 24 22 23 23 19 15 14 15 18 18 12 9 9 8 5 3 360 1 3
133 135 137 135 131 129 129 128 122 114 102 90 82 76 73 67 62 60 40 33 43 48 45 42 35 33 35 33 31 29 27 29 27 24 22 18 14 16 21 25 28 30 30 29 29 29 31 30 25 20 19 18 19 19 19 22 25 24 20 17 16 17 15
143 143 140 136 132 131 131 128 116 100 95 90 82 83 92 92 68 62 58 47 49 55 50 46 44 37 31 30 33 32 29 29 28 27 27 20 13 18 24 26 29 31 32 33 30 29 29 28 27 25 22 18 15 13 14 18 23 25 26 26 25 27 26
146 144 141 138 135 132 131 126 111 95 93 91 84 80 81 82 73 70 74 70 58 54 49 54 65 53 35 27 32 36 34 32 31 30 31 26 17 19 24 25 25 27 30 31 29 28 28 28 27 25 24 23 18 13 11 11 13 16 19 21 18 18 20
145 143 141 139 136 134 130 120 103 94 95 92 86 82 80 81 77 71 70 65 53 49 48 51 61 62 49 34 31 37 39 36 35 32 32 33 26 20 20 22 23 23 25 26 22 20 22 24 25 24 22 23 22 20 16 13 13 13 13 17 15 10 9
146 143 142 139 136 131 125 113 100 98 100 95 89 87 86 84 78 67 61 55 48 49 56 56 52 57 63 50 32 38 47 44 42 40 36 38 37 30 22 19 22 23 23 24 19 15 13 14 17 20 21 21 23 25 21 16 16 16 13 14 14 10 7
146 143 143 139 132 123 115 108 104 101 99 96 91 87 85 82 77 66 57 56 57 58 63 64 56 55 71 69 46 45 55 54 52 51 45 41 40 38 33 23 21 21 21 23 22 17 12 7 8 16 22 24 27 31 30 23 18 18 16 14 14 12 11
145 143 141 134 125 118 112 109 108 103 98 95 92 88 86 83 78 70 65 66 70 69 65 64 61 58 72 78 65 56 60 60 58 56 50 44 39 39 39 34 27 22 21 22 23 23 17 7 5 13 18 21 27 32 33 30 24 21 20 18 16 14 13
142 139 134 126 121 119 116 113 110 105 100 96 92 90 90 87 82 79 80 78 76 73 68 65 65 65 72 80 75 65 63 63 63 61 56 50 45 43 44 43 38 33 29 26 21 24 23 10 6 13 14 11 20 28 28 27 26 24 22 21 18 16 15
133 130 127 125 124 121 119 116 111 105 99 94 93 94 95 96 91 87 86 83 78 76 72 68 69 70 72 78 76 67 62 63 63 62 61 57 54 52 49 46 44 40 37 38 34 32 32 17 9 16 15 7 14 25 25 24 25 25 25 23 20 17 15
130 129 129 129 127 124 122 118 111 105 99 95 98 102 102 100 95 90 86 82 79 79 76 70 70 72 72 76 75 66 60 62 62 60 61 60 58 57 54 49 48 44 39 43 50 53 49 31 16 19 21 13 13 21 25 26 26 27 27 25 23 19 16
132 132 131 131 130 127 124 118 112 107 103 101 104 107 106 102 96 92 86 81 81 82 80 75 71 75 76 75 74 68 60 60 61 60 60 60 58 57 56 53 50 47 43 42 48 57 61 50 29 23 26 25 21 22 25 26 26 27 30 29 26 22 18
134 133 133 133 131 128 124 121 117 112 110 110 112 111 108 103 97 92 87 85 86 86 84 81 77 82 83 76 71 68 64 62 63 62 61 61 59 56 55 54 52 49 47 44 45 51 58 53 36 27 29 29 27 26 25 24 23 24 29 30 27 24 22
136 135 136 134 132 130 129 127 123 118 117 117 117 113 108 103 98 95 93 91 89 88 88 87 86 90 91 84 74 65 63 63 63 62 59 58 59 58 54 53 52 52 50 48 45 47 54 53 41 32 33 31 28 30 29 25 23 22 24 28 26 24 25
138 136 136 137 137 136 133 129 123 120 121 121 118 113 108 105 102 101 100 97 93 91 90 91 94 97 96 93 85 72 63 61 58 56 56 54 54 56 55 52 51 52 52 50 47 45 50 56 52 39 36 35 32 32 30 27 26 23 22 25 26 25 27
138 137 139 143 142 137 133 129 123 122 123 122 118 113 108 106 105 103 102 101 97 94 92 94 98 101 99 96 90 78 67 67 61 53 52 50 48 49 51 51 50 50 51 50 48 45 46 55 60 52 41 37 35 34 32 28 27 26 22 24 26 25 27
138 142 147 146 142 138 135 129 123 121 120 117 114 111 110 111 109 106 104 102 100 100 99 98 98 98 99 99 95 85 69 67 69 62 55 51 48 47 46 48 49 49 50 49 47 45 45 52 60 57 48 41 37 38 36 28 26 28 25 25 26 25 26
146 150 151 146 142 139 134 127 121 118 116 116 118 117 116 116 113 109 106 102 102 102 102 100 97 93 92 95 101 102 92 75 67 64 63 57 50 48 48 49 49 48 49 48 46 44 44 50 57 58 53 47 41 39 37 28 26 30 28 26 27 27 26
153 153 150 145 142 137 131 126 123 122 124 128 127 122 118 117 114 111 108 105 102 100 98 98 96 93 91 88 91 100 105 100 84 69 68 66 59 54 54 53 51 48 48 47 46 44 45 50 57 60 58 53 46 40 36 29 27 30 30 28 28 28 28
154 151 148 145 142 135 130 127 126 128 132 131 126 120 116 115 112 109 107 105 102 98 94 95 94 92 91 88 83 84 94 100 98 87 76 71 64 61 60 56 52 50 50 50 50 50 49 52 57 59 58 55 51 43 37 31 30 31 31 30 29 28 28
152 149 147 144 140 135 131 129 129 132 130 126 123 121 118 116 111 107 103 99 98 98 95 95 95 92 90 90 88 85 84 90 95 94 89 83 76 70 67 62 54 52 53 53 51 51 51 50 51 54 53 49 47 43 37 33 33 32 31 31 30 30 29
150 149 147 144 140 135 131 129 128 128 125 124 125 124 121 119 114 109 105 98 95 95 96 96 95 92 90 87 86 85 83 83 86 87 85 82 77 72 70 66 60 56 54 52 47 44 45 45 42 42 44 43 41 40 37 33 33 32 32 31 30 30 28
Height
1541 1540 1541 1541 1541 1541 1541 1540 1539 1538 1538 1538 1539 1539 1539 1539 1539 1539 1539 1539 1539 1539 1538 1538 1538 1537 1536 1535 1533 1532 1531 1529 1528 1527 1525 1523 1521 1520 1518 1516 1514 1513 1511 1509 1507 1503 1500 1495 1491 1491 1491 1489 1488 1487 1487 1488 1487 1487 1486 1484 1483 1483 1484
1540 1540 1541 1541 1541 1540 1540 1539 1538 1538 1538 1539 1539 1539 1539 1539 1539 1538 1539 1539 1538 1538 1538 1538 1537 1536 1535 1534 1532 1531 1530 1529 1528 1526 1524 1523 1521 1519 1517 1515 1513 1511 1509 1508 1506 1504 1502 1498 1493 1491 1490 1488 1487 1486 1486 1486 1486 1484 1483 1483 1482 1482 1483
1540 1540 1541 1540 1540 1540 1539 1539 1539 1538 1538 1539 1539 1539 1539 1539 1539 1538 1538 1538 1538 1537 1537 1536 1535 1534 1534 1533 1532 1531 1530 1528 1527 1526 1524 1522 1521 1519 1517 1515 1512 1510 1508 1506 1505 1502 1501 1499 1495 1492 1490 1489 1487 1485 1484 1484 1484 1482 1482 1483 1483 1482 1482
1540 1540 1540 1540 1539 1539 1539 1539 1539 1539 1538 1538 1538 1539 1539 1538 1538 1538 1537 1537 1537 1536 1536 1535 1534 1533 1533 1532 1532 1531 1529 1528 1527 1525 1524 1522 1520 1518 1516 1515 1512 1510 1508 1506 1504 1502 1500 1498 1495 1492 1490 1489 1487 1484 1483 1482 1481 1480 1480 1481 1481 1481 1480
1539 1539 1539 1539 1538 1539 1539 1539 1540 1539 1538 1538 1539 1539 1539 1538 1538 1537 1537 1537 1536 1536 1535 1535 1534 1533 1532 1532 1531 1531 1529 1528 1527 1525 1523 1521 1520 1518 1516 1514 1512 1511 1509 1507 1505 1503 1500 1498 1496 1493 1491 1488 1485 1483 1482 1480 1478 1477 1477 1477 1478 1479 1479
1538 1538 1537 1538 1538 1538 1539 1538 1539 1539 1538 1539 1539 1539 1538 1537 1537 1537 1537 1536 1536 1536 1535 1534 1534 1533 1532 1532 1532 1531 1529 1528 1527 1525 1523 1521 1520 1518 1516 1514 1512 1511 1509 1507 1505 1503 1501 1498 1495 1493 1491 1489 1485 1482 1481 1480 1478 1476 1475 1474 1475 1476 1477
1537 1537 1536 1536 1537 1537 1537 1537 1537 1537 1538 1539 1539 1538 1537 1537 1537 1537 1537 1537 1536 1536 1535 1534 1534 1533 1532 1532 1532 1530 1529 1527 1526 1524 1523 1521 1519 1517 1515 1513 1512 1510 1509 1507 1505 1503 1500 1498 1495 1493 1491 1488 1485 1483 1481 1479 1478 1476 1474 1473 1474 1474 1474
1535 1535 1535 1534 1535 1535 1536 1535 1536 1537 1538 1538 1538 1538 1538 1537 1537 1537 1537 1537 1536 1536 1535 1534 1533 1533 1533 1532 1531 1529 1528 1526 1525 1524 1522 1521 1519 1517 1515 1513 1511 1509 1508 1506 1504 1502 1500 1498 1496 1494 1491 1488 1485 1482 1480 1478 1477 1477 1475 1473 1473 1473 1473
1534 1533 1533 1533 1533 1534 1535 1535 1536 1536 1537 1537 1538 1538 1538 1538 1537 1537 1537 1537 1537 1536 1535 1534 1534 1533 1533 1532 1530 1529 1527 1526 1525 1523 1522 1520 1518 1516 1514 1513 1511 1509 1507 1505 1504 1502 1500 1498 1496 1494 1491 1488 1486 1483 1480 1479 1477 1476 1475 1473 1471 1471 1472
1532 1532 1532 1533 1533 1533 1534 1535 1536 1536 1537 1537 1538 1538 1538 1538 1538 1538 1538 1537 1537 1536 1536 1535 1534 1533 1532 1531 1530 1529 1527 1526 1525 1523 1521 1520 1518 1516 1515 1513 1511 1509 1507 1505 1503 1502 1499 1498 1496 1494 1491 1489 1487 1485 1482 1480 1478 1476 1475 1474 1471 1469 1469
1531 1531 1532 1532 1533 1534 1534 1535 1536 1536 1537 1538 1538 1539 1539 1538 1538 1538 1538 1537 1537 1537 1536 1535 1535 1534 1533 1532 1530 1529 1528 1527 1525 1523 1522 1520 1518 1517 1515 1514 1512 1510 1508 1505 1503 1501 1499 1497 1495 1494 1491 1490 1488 1487 1484 1482 1479 1477 1475 1473 1471 1468 1467
1530 1531 1531 1532 1533 1534 1535 1535 1536 1537 1537 1538 1538 1539 1539 1539 1539 1539 1539 1539 1539 1538 1537 1536 1535 1534 1533 1532 1531 1530 1528 1527 1525 1523 1522 1520 1519 1517 1516 1514 1512 1510 1508 1506 1504 1502 1499 1497 1495 1493 1492 1490 1489 1487 1486 1483 1480 1477 1475 1473 1471 1469 1466
1529 1530 1531 1532 1533 1534 1535 1535 1536 1537 1538 1538 1539 1539 1540 1541 1541 1541 1541 1541 1540 1539 1538 1536 1536 1535 1534 1533 1531 1530 1528 1527 1526 1524 1523 1521 1519 1518 1517 1515 1513 1511 1509 1507 1505 1503 1500 1498 1496 1494 1492 1490 1489 1487 1486 1484 1481 1478 1476 1474 1472 1470 1467
1529 1530 1531 1532 1533 1534 1535 1536 1537 1538 1538 1539 1540 1540 1541 1542 1543 1542 1541 1541 1541 1540 1539 1537 1536 1535 1535 1533 1531 1530 1529 1528 1527 1525 1524 1522 1521 1519 1518 1516 1514 1512 1510 1508 1506 1504 1501 1499 1497 1495 1493 1490 1489 1488 1486 1484 1481 1478 1476 1474 1472 1470 1468
1529 1531 1531 1533 1534 1534 1535 1536 1538 1538 1539 1539 1541 1541 1542 1543 1544 1543 1542 1542 1541 1541 1540 1538 1536 1535 1535 1534 1532 1531 1530 1529 1528 1527 1525 1524 1522 1521 1519 1517 1515 1513 1511 1509 1507 1505 1503 1501 1499 1496 1494 1492 1490 1489 1486 1484 1482 1479 1477 1475 1473 1471 1469
1529 1531 1532 1533 1534 1535 1536 1537 1538 1539 1539 1540 1541 1543 1544 1544 1544 1544 1543 1542 1542 1541 1540 1539 1538 1537 1536 1535 1534 1533 1532 1530 1529 1528 1527 1525 1524 1522 1520 1518 1516 1514 1512 1510 1508 1506 1504 1502 1500 1498 1496 1494 1492 1490 1488 1485 1483 1481 1479 1477 1474 1472 1469
1530 1531 1532 1533 1534 1536 1537 1538 1539 1539 1540 1541 1542 1543 1545 1545 1544 1544 1543 1543 1542 1541 1541 1541 1540 1538 1537 1536 1535 1534 1533 1532 1531 1530 1529 1527 1525 1522 1520 1518 1517 1515 1514 1512 1509 1508 1505 1503 1501 1500 1498 1496 1494 1492 1490 1487 1485 1483 1481 1479 1476 1474 1472
1530 1531 1532 1534 1535 1537 1538 1538 1539 1540 1541 1542 1542 1543 1545 1545 1544 1544 1545 1544 1542 1541 1541 1541 1541 1540 1538 1537 1536 1535 1534 1533 1533 1531 1530 1529 1526 1523 1521 1519 1518 1516 1515 1513 1511 1509 1507 1505 1503 1501 1499 1498 1496 1495 1493 1490 1488 1485 1483 1481 1479 1476 1474
1530 1531 1533 1534 1536 1537 1538 1539 1540 1541 1542 1543 1543 1544 1545 1544 1544 1544 1544 1543 1542 1541 1540 1540 1539 1539 1539 1538 1537 1536 1535 1534 1534 1533 1531 1530 1527 1525 1522 1520 1519 1517 1516 1514 1513 1511 1509 1507 1505 1502 1500 1498 1497 1496 1495 1493 1490 1488 1485 1483 1481 1478 1476
1531 1532 1533 1535 1536 1538 1539 1539 1541 1543 1544 1544 1544 1545 1545 1544 1543 1543 1543 1543 1542 1541 1540 1539 1539 1538 1539 1539 1538 1537 1536 1535 1535 1534 1532 1531 1529 1527 1524 1522 1520 1518 1517 1515 1514 1513 1511 1508 1506 1504 1502 1500 1498 1496 1495 1494 1492 1490 1487 1484 1482 1480 1477
1531 1533 1534 1536 1537 1538 1539 1540 1541 1543 1544 1544 1545 1546 1545 1544 1544 1543 1543 1543 1542 1541 1541 1540 1539 1538 1538 1539 1539 1537 1536 1536 1535 1534 1533 1532 1530 1528 1526 1524 1522 1520 1519 1517 1516 1514 1512 1510 1508 1506 1504 1501 1499 1497 1496 1494 1492 1491 1489 1486 1484 1482 1480
1531 1533 1535 1536 1538 1539 1540 1542 1543 1544 1544 1544 1545 1545 1545 1544 1544 1544 1543 1543 1543 1542 1541 1540 1540 1539 1539 1539 1539 1538 1537 1536 1535 1535 1534 1532 1531 1529 1528 1526 1523 1521 1520 1519 1517 1515 1513 1511 1509 1507 1505 1503 1500 1498 1496 1495 1493 1491 1490 1488 1485 1483 1481
1532 1534 1536 1537 1539 1540 1542 1543 1544 1544 1544 1544 1545 1545 1545 1545 1544 1544 1544 1544 1543 1542 1542 1541 1541 1541 1540 1539 1539 1539 1538 1537 1536 1535 1534 1533 1532 1530 1529 1527 1525 1523 1521 1520 1518 1517 1515 1513 1511 1509 1507 1505 1502 1499 1497 1496 1495 1493 1492 1490 1488 1485 1483
1533 1535 1537 1538 1540 1542 1543 1544 1544 1544 1544 1544 1545 1545 1545 1545 1545 1545 1544 1544 1544 1543 1543 1542 1542 1542 1541 1540 1540 1540 1539 1538 1537 1536 1535 1534 1532 1531 1529 1528 1526 1525 1523 1521 1520 1518 1517 1515 1514 1511 1509 1507 1505 1502 1500 1498 1497 1496 1494 1493 1491 1489 1487
1535 1537 1539 1541 1542 1543 1544 1544 1544 1544 1544 1544 1545 1545 1545 1546 1545 1545 1545 1545 1545 1544 1544 1544 1544 1543 1543 1541 1541 1540 1540 1539 1537 1536 1535 1534 1533 1532 1530 1529 1527 1526 1524 1522 1522 1520 1518 1517 1516 1514 1512 1510 1507 1506 1504 1501 1499 1498 1497 1496 1494 1492 1490
1537 1539 1540 1542 1543 1543 1544 1545 1544 1544 1544 1544 1545 1545 1546 1546 1546 1546 1546 1545 1545 1545 1545 1545 1545 1545 1544 1542 1542 1541 1541 1540 1538 1537 1536 1535 1534 1532 1531 1530 1529 1527 1526 1524 1523 1521 1519 1519 1519 1517 1515 1513 1511 1509 1507 1505 1503 1501 1500 1498 1497 1495 1493
1538 1540 1541 1542 1543 1544 1544 1544 1544 1544 1544 1545 1546 1547 1547 1547 1546 1546 1546 1546 1546 1546 1546 1546 1546 1546 1545 1543 1542 1542 1542 1541 1540 1539 1537 1536 1535 1534 1533 1532 1530 1529 1527 1525 1524 1522 1521 1521 1521 1520 1518 1516 1514 1512 1510 1508 1506 1504 1503 1501 1500 1498 1496
1538 1540 1541 1543 1543 1544 1544 1543 1543 1543 1544 1545 1547 1548 1548 1548 1547 1547 1547 1547 1547 1547 1547 1547 1547 1546 1545 1545 1544 1544 1544 1543 1541 1540 1539 1538 1537 1535 1534 1533 1531 1530 1529 1527 1526 1524 1522 1521 1522 1521 1520 1518 1517 1515 1513 1511 1508 1506 1505 1504 1502 1500 1498
1538 1539 1541 1543 1543 1544 1544 1543 1542 1543 1544 1546 1548 1548 1548 1548 1548 1547 1548 1548 1548 1548 1548 1548 1548 1547 1546 1546 1546 1546 1546 1544 1543 1542 1541 1540 1538 1537 1535 1534 1533 1532 1530 1529 1528 1526 1524 1522 1522 1522 1521 1520 1518 1517 1515 1513 1511 1509 1507 1505 1504 1502 1500
1538 1540 1541 1542 1543 1543 1543 1542 1542 1543 1545 1547 1548 1548 1548 1548 1548 1548 1548 1549 1549 1549 1549 1549 1549 1548 1547 1546 1546 1547 1547 1546 1545 1544 1542 1541 1540 1538 1537 1536 1535 1533 1532 1530 1529 1528 1526 1524 1523 1522 1522 1521 1520 1518 1516 1515 1513 1511 1509 1507 1506 1504 1502
1538 1539 1541 1542 1542 1543 1543 1542 1542 1544 1546 1547 1548 1549 1549 1549 1549 1549 1549 1550 1550 1550 1550 1550 1550 1549 1548 1547 1547 1548 1549 1548 1547 1546 1545 1543 1542 1540 1539 1538 1537 1535 1533 1532 1531 1530 1528 1525 1524 1523 1523 1522 1521 1520 1518 1517 1516 1514 1512 1510 1508 1506 1504
1539 1539 1540 1541 1542 1543 1543 1542 1542 1544 1546 1548 1549 1549 1550 1550 1550 1550 1550 1551 1551 1551 1551 1551 1551 1550 1549 1548 1548 1549 1550 1549 1548 1548 1547 1545 1544 1542 1541 1539 1538 1537 1535 1534 1533 1532 1530 1527 1525 1524 1524 1523 1522 1521 1520 1519 1518 1516 1515 1512 1510 1508 1506
1538 1539 1540 1540 1542 1543 1543 1542 1543 1545 1547 1549 1549 1550 1550 1550 1551 1551 1552 1552 1552 1552 1552 1551 1551 1551 1550 1549 1549 1549 1550 1550 1549 1549 1548 1547 1546 1544 1542 1541 1540 1539 1537 1536 1535 1534 1532 1529 1527 1526 1525 1524 1523 1523 1522 1521 1520 1518 1516 1515 1512 1510 1509
1537 1538 1540 1541 1542 1543 1542 1542 1544 1546 1548 1549 1550 1550 1551 1551 1552 1552 1553 1553 1553 1553 1553 1552 1552 1552 1551 1551 1550 1549 1549 1549 1550 1550 1549 1548 1547 1546 1544 1543 1542 1541 1539 1538 1537 1536 1534 1532 1530 1529 1527 1526 1526 1525 1524 1523 1521 1520 1518 1517 1514 1513 1511
1537 1539 1540 1542 1543 1543 1542 1543 1545 1547 1548 1549 1550 1551 1552 1553 1553 1554 1554 1555 1554 1554 1554 1554 1553 1553 1552 1552 1552 1551 1550 1549 1549 1550 1550 1549 1548 1547 1545 1544 1543 1542 1541 1540 1539 1538 1536 1534 1532 1531 1530 1529 1528 1526 1526 1524 1523 1522 1520 1518 1517 1515 1513
1537 1539 1541 1543 1543 1542 1542 1544 1546 1547 1549 1550 1551 1553 1553 1554 1554 1555 1556 1556 1555 1555 1555 1555 1555 1554 1554 1553 1553 1553 1552 1551 1550 1550 1550 1549 1548 1547 1546 1546 1545 1544 1543 1542 1541 1539 1538 1536 1535 1533 1532 1530 1529 1528 1527 1526 1524 1523 1522 1520 1518 1517 1515
1538 1539 1542 1543 1542 1542 1543 1545 1547 1549 1550 1552 1553 1554 1555 1555 1556 1557 1557 1557 1557 1556 1556 1556 1556 1555 1555 1555 1554 1554 1553 1552 1551 1550 1550 1549 1549 1548 1548 1547 1547 1546 1544 1543 1542 1541 1540 1539 1537 1536 1534 1532 1531 1529 1528 1527 1526 1525 1524 1522 1520 1519 1517